User: anonymous   Login
Location: Heilwood
(40.6210°N, 78.9150°W)
Time: 11:20:51
(UTC-04:00)
Language:

Iridium 4 Rocket - Orbit

View from above orbital plane
View from above orbital plane
View from above satellite
View from above satellite

Ground track
Ground track

The orbit data is extracted from the following two-line orbital elements,

1 24797U 97020F   17086.92334138 +.00000154 +00000-0 +28293-4 0  9990
2 24797 086.9000 023.1261 0223729 227.9381 198.9832 14.43961159046188
Epoch (UTC): 27 March 2017 22:09:36
Eccentricity: 0.0223729
inclination: 86.9000°
perigee height: 586 km
apogee height: 905 km
right ascension of ascending node: 23.1261°
argument of perigee: 227.9381°
revolutions per day: 14.43961159
mean anomaly at epoch: 198.9832°
orbit number at epoch: 4618

The dashed part of the orbit path shows where the satellite is in the earth's shadow,  

DLR